Tracking 29892 objects as of 21-Nov-2024
HD Live streaming from Space Station
objects crossing your sky now

FENGYUN 1C DEB

Track FENGYUN 1C DEB now!
10-day predictions


NORAD ID: 33661
Int'l Code: 1999-025DEW
Perigee: 829.4 km
Apogee: 1,177.3 km
Inclination: 98.4 °
Period: 105.0 minutes
Semi major axis: 7374 km
RCS: 0.0066 m2 (small)
Launch date: May 10, 1999
Source: People's Republic of China (PRC)
Launch site: Taiyaun Space Center, China (TSC)

Note: This is SATELLITE DEBRIS
Your satellite tracking list
Your tracking list is empty




NASA's NSSDC Master Catalog

Two Line Element Set (TLE):
1 33661U 99025DEW 24325.29072166  .00002213  00000-0  20687-2 0  9996
2 33661  98.4222 252.8789 0235852 112.9651  39.2465 13.70941764591443
Source of the keplerian elements: AFSPC